• en France
  • Liste des pays
  • À 7 jours
  • Température de l'eau
  • Carte satellitaire
  • Carte météo
  • Widgets météo
  • user-avatar
    Se connecter

    Météo par heure à Vitusha

    Ce jour, 22 Mai, Mardi

    Heure Température Précipitation Vent Pression Humidité
    00:00 +12°C° 0 mm 5 m/s 755 mmHg 68%
    01:00 +12°C° 0 mm 4 m/s 755 mmHg 68%
    02:00 +12°C° 0 mm 4 m/s 755 mmHg 68%
    03:00 +12°C° 0 mm 4 m/s 755 mmHg 67%
    04:00 +12°C° 0,2 mm 4 m/s 755 mmHg 71%
    05:00 +11°C° 0,2 mm 4 m/s 756 mmHg 74%
    06:00 +10°C° 0,2 mm 5 m/s 756 mmHg 78%
    07:00 +12°C° 0,3 mm 5 m/s 756 mmHg 79%
    08:00 +12°C° 0,3 mm 4 m/s 756 mmHg 80%
    09:00 +13°C° 0 mm 5 m/s 757 mmHg 79%
    10:00 +14°C° 0 mm 5 m/s 757 mmHg 76%
    11:00 +16°C° 0 mm 5 m/s 757 mmHg 73%
    12:00 +19°C° 0 mm 5 m/s 757 mmHg 70%
    13:00 +20°C° 0 mm 5 m/s 756 mmHg 69%
    14:00 +21°C° 0 mm 5 m/s 756 mmHg 68%
    15:00 +23°C° 0 mm 5 m/s 756 mmHg 65%
    16:00 +22°C° 0 mm 4 m/s 756 mmHg 69%
    17:00 +22°C° 0 mm 4 m/s 756 mmHg 72%
    18:00 +22°C° 0 mm 3 m/s 756 mmHg 75%
    19:00 +20°C° 0 mm 3 m/s 756 mmHg 79%
    20:00 +19°C° 0 mm 3 m/s 755 mmHg 82%
    21:00 +18°C° 0 mm 2 m/s 755 mmHg 86%
    22:00 +17°C° 0,3 mm 3 m/s 755 mmHg 87%
    23:00 +17°C° 0,3 mm 3 m/s 755 mmHg 87%

    Demain, 23 Mai, Mercredi

    Heure Température Précipitation Vent Pression Humidité
    00:00 +17°C° 0,3 mm 3 m/s 755 mmHg 88%
    01:00 +16°C° 0,9 mm 3 m/s 755 mmHg 90%
    02:00 +16°C° 0,9 mm 3 m/s 755 mmHg 92%
    03:00 +14°C° 0,9 mm 3 m/s 755 mmHg 93%
    04:00 +16°C° 0,8 mm 3 m/s 755 mmHg 94%
    05:00 +16°C° 0,8 mm 3 m/s 755 mmHg 94%
    06:00 +16°C° 0,8 mm 3 m/s 755 mmHg 94%
    07:00 +17°C° 0,1 mm 3 m/s 755 mmHg 92%
    08:00 +18°C° 0,1 mm 3 m/s 755 mmHg 89%
    09:00 +19°C° 0,1 mm 3 m/s 755 mmHg 87%
    10:00 +19°C° 0 mm 3 m/s 754 mmHg 85%
    11:00 +20°C° 0 mm 2 m/s 754 mmHg 83%
    12:00 +21°C° 0 mm 2 m/s 754 mmHg 80%
    13:00 +21°C° 0 mm 2 m/s 754 mmHg 78%
    14:00 +23°C° 0 mm 2 m/s 754 mmHg 75%
    15:00 +24°C° 0 mm 2 m/s 753 mmHg 72%
    16:00 +24°C° 0,2 mm 2 m/s 753 mmHg 75%
    17:00 +23°C° 0,2 mm 2 m/s 753 mmHg 77%
    18:00 +23°C° 0,2 mm 1 m/s 753 mmHg 80%
    19:00 +22°C° 0,4 mm 1 m/s 753 mmHg 84%
    20:00 +21°C° 0,4 mm 1 m/s 753 mmHg 88%
    21:00 +18°C° 0,4 mm 2 m/s 752 mmHg 92%
    22:00 +19°C° 0,1 mm 1 m/s 752 mmHg 91%
    23:00 +19°C° 0,1 mm 1 m/s 752 mmHg 91%

    Après-demain, 24 Mai, Jeudi

    Heure Température Précipitation Vent Pression Humidité
    00:00 +18°C° 0,1 mm 1 m/s 752 mmHg 90%
    01:00 +18°C° 0,2 mm 1 m/s 752 mmHg 90%
    02:00 +18°C° 0,2 mm 1 m/s 752 mmHg 91%
    03:00 +16°C° 0,2 mm 1 m/s 751 mmHg 91%
    04:00 +16°C° 0,2 mm 1 m/s 751 mmHg 91%
    05:00 +16°C° 0,2 mm 1 m/s 751 mmHg 91%
    06:00 +16°C° 0,2 mm 1 m/s 751 mmHg 91%
    07:00 +18°C° 0,1 mm 1 m/s 751 mmHg 88%
    08:00 +19°C° 0,1 mm 1 m/s 751 mmHg 85%
    09:00 +20°C° 0,1 mm 1 m/s 751 mmHg 81%
    10:00 +21°C° 0,1 mm 2 m/s 751 mmHg 77%
    11:00 +23°C° 0,1 mm 2 m/s 751 mmHg 72%
    12:00 +24°C° 0,1 mm 2 m/s 750 mmHg 67%
    13:00 +24°C° 0,4 mm 3 m/s 750 mmHg 67%
    14:00 +24°C° 0,4 mm 3 m/s 750 mmHg 67%
    15:00 +25°C° 0,4 mm 3 m/s 749 mmHg 67%
    16:00 +24°C° 0,5 mm 3 m/s 749 mmHg 70%
    17:00 +24°C° 0,5 mm 3 m/s 749 mmHg 73%
    18:00 +22°C° 0,5 mm 3 m/s 749 mmHg 77%
    19:00 +21°C° 0 mm 3 m/s 749 mmHg 81%
    20:00 +19°C° 0 mm 3 m/s 749 mmHg 85%
    21:00 +18°C° 0 mm 3 m/s 749 mmHg 89%
    22:00 +17°C° 0 mm 3 m/s 749 mmHg 89%
    23:00 +17°C° 0 mm 4 m/s 749 mmHg 89%

    25 Mai, Vendredi

    Heure Température Précipitation Vent Pression Humidité
    00:00 +15°C° 0 mm 4 m/s 749 mmHg 90%
    01:00 +15°C° 0 mm 4 m/s 749 mmHg 90%
    02:00 +15°C° 0 mm 5 m/s 750 mmHg 89%
    03:00 +14°C° 0 mm 5 m/s 750 mmHg 89%
    04:00 +14°C° 0 mm 6 m/s 750 mmHg 87%
    05:00 +14°C° 0 mm 6 m/s 751 mmHg 86%
    06:00 +12°C° 0 mm 7 m/s 751 mmHg 84%
    07:00 +14°C° 0 mm 7 m/s 752 mmHg 77%
    08:00 +14°C° 0 mm 7 m/s 752 mmHg 71%
    09:00 +15°C° 0 mm 8 m/s 753 mmHg 64%
    10:00 +16°C° 0 mm 8 m/s 753 mmHg 60%
    11:00 +16°C° 0 mm 7 m/s 754 mmHg 56%
    12:00 +17°C° 0 mm 7 m/s 754 mmHg 51%
    13:00 +17°C° 0 mm 7 m/s 754 mmHg 51%
    14:00 +17°C° 0 mm 7 m/s 754 mmHg 50%
    15:00 +17°C° 0 mm 7 m/s 755 mmHg 50%
    16:00 +16°C° 0 mm 7 m/s 755 mmHg 52%
    17:00 +15°C° 0 mm 6 m/s 755 mmHg 55%
    18:00 +15°C° 0 mm 5 m/s 755 mmHg 58%
    19:00 +13°C° 0 mm 5 m/s 756 mmHg 59%
    20:00 +12°C° 0 mm 4 m/s 756 mmHg 59%
    21:00 +10°C° 0 mm 4 m/s 757 mmHg 60%
    22:00 +10°C° 0 mm 4 m/s 757 mmHg 61%
    23:00 +9°C° 0 mm 3 m/s 758 mmHg 62%

    26 Mai, Samedi

    Heure Température Précipitation Vent Pression Humidité
    00:00 +8°C° 0 mm 3 m/s 758 mmHg 63%
    01:00 +8°C° 0 mm 3 m/s 759 mmHg 65%
    02:00 +7°C° 0 mm 3 m/s 759 mmHg 66%
    03:00 +7°C° 0 mm 3 m/s 759 mmHg 68%
    04:00 +7°C° 0 mm 3 m/s 760 mmHg 69%
    05:00 +8°C° 0 mm 3 m/s 760 mmHg 70%
    06:00 +8°C° 0 mm 2 m/s 760 mmHg 71%
    07:00 +10°C° 0 mm 3 m/s 761 mmHg 64%
    08:00 +12°C° 0 mm 3 m/s 761 mmHg 57%
    09:00 +14°C° 0 mm 3 m/s 761 mmHg 50%
    10:00 +16°C° 0 mm 3 m/s 761 mmHg 49%
    11:00 +17°C° 0 mm 3 m/s 761 mmHg 47%
    12:00 +18°C° 0 mm 3 m/s 761 mmHg 46%
    13:00 +18°C° 0 mm 3 m/s 761 mmHg 47%
    14:00 +18°C° 0 mm 3 m/s 761 mmHg 47%
    15:00 +19°C° 0 mm 3 m/s 760 mmHg 48%
    16:00 +19°C° 0 mm 2 m/s 760 mmHg 51%
    17:00 +19°C° 0 mm 2 m/s 760 mmHg 54%
    18:00 +20°C° 0 mm 1 m/s 760 mmHg 56%
    19:00 +17°C° 0 mm 2 m/s 760 mmHg 61%
    20:00 +15°C° 0 mm 2 m/s 760 mmHg 66%
    21:00 +14°C° 0 mm 2 m/s 760 mmHg 71%
    22:00 +13°C° 0 mm 2 m/s 760 mmHg 74%
    23:00 +13°C° 0 mm 2 m/s 760 mmHg 76%

    27 Mai, Dimanche

    Heure Température Précipitation Vent Pression Humidité
    00:00 +11°C° 0 mm 3 m/s 760 mmHg 78%
    01:00 +11°C° 0 mm 3 m/s 760 mmHg 80%
    02:00 +10°C° 0 mm 3 m/s 760 mmHg 83%
    03:00 +10°C° 0 mm 3 m/s 760 mmHg 85%
    04:00 +11°C° 0 mm 3 m/s 760 mmHg 84%
    05:00 +11°C° 0 mm 3 m/s 760 mmHg 84%
    06:00 +12°C° 0 mm 3 m/s 760 mmHg 83%
    07:00 +14°C° 0 mm 3 m/s 759 mmHg 78%
    08:00 +17°C° 0 mm 3 m/s 759 mmHg 74%
    09:00 +19°C° 0 mm 4 m/s 759 mmHg 69%
    10:00 +20°C° 0 mm 4 m/s 758 mmHg 64%
    11:00 +21°C° 0 mm 5 m/s 758 mmHg 58%
    12:00 +22°C° 0 mm 5 m/s 758 mmHg 53%
    13:00 +23°C° 0 mm 5 m/s 757 mmHg 53%
    14:00 +23°C° 0 mm 6 m/s 757 mmHg 54%
    15:00 +23°C° 0 mm 6 m/s 756 mmHg 54%
    16:00 +22°C° 0 mm 6 m/s 756 mmHg 58%
    17:00 +22°C° 0 mm 5 m/s 755 mmHg 63%
    18:00 +21°C° 0 mm 5 m/s 755 mmHg 67%
    19:00 +20°C° 0 mm 5 m/s 754 mmHg 70%
    20:00 +19°C° 0 mm 4 m/s 754 mmHg 73%
    21:00 +17°C° 0 mm 4 m/s 754 mmHg 77%
    22:00 +17°C° 0 mm 4 m/s 754 mmHg 79%
    23:00 +15°C° 0 mm 4 m/s 754 mmHg 82%
    Voir plus